Regional Weather Roundup
Issued by NWS

Home | Current Version | Previous Version | Graphics & Text | Print | Product List | Glossary On
Versions: 1 2 3 4 5 6 7 8 9 10 11 12 13 14 15 16 17 18 19 20 21 22 23 24 25 26 27 28 29 30 31 32 33 34 35 36 37 38 39 40 41 42 43 44 45 46 47 48 49 50
000
ASUS43 KLMK 250902
RWRKY
KENTUCKY REGIONAL WEATHER ROUNDUP
NATIONAL WEATHER SERVICE LOUISVILLE KY
500 AM EDT MON MAY 25 2015

NOTE "FAIR" INDICATES FEW OR NO CLOUDS BELOW 12,000 FEET
WITH NO SIGNIFICANT WEATHER AND/OR OBSTRUCTIONS TO VISIBILITY.

KYZ001>023-026-027-061>063-070>075-251000-
WESTERN AND SOUTH CENTRAL KENTUCKY

CITY           SKY/WX    TMP DP  RH WIND       PRES   REMARKS
PADUCAH        LGT RAIN  69  66  90 S10G18    30.02R FOG
HENDERSON      CLOUDY    68  64  88 S15       30.03S
OWENSBORO      HVY RAIN  70  68  93 SW17G24   30.08R FOG
HOPKINSVILLE   CLOUDY    68  66  92 S13       30.09R
BOWLING GREEN  LGT RAIN  72  61  68 S18G26    30.10R
GLASGOW        NOT AVBL
$$

KYZ024-025-028>034-038-045-046-053-251000-
NORTH CENTRAL KENTUCKY

CITY           SKY/WX    TMP DP  RH WIND       PRES   REMARKS
LOUISVILLE/SDF CLOUDY    75  58  55 S15       30.07F
LOUISVILLE/LOU CLOUDY    74  59  59 S6        30.08S
FORT KNOX      MOCLDY    71  59  64 S13       30.07S
$$

KYZ035>037-039>044-047>052-055>060-089>105-251000-
NORTHEAST KENTUCKY

CITY           SKY/WX    TMP DP  RH WIND       PRES   REMARKS
LEXINGTON      MOCLDY    68  55  63 S10       30.13S
COVINGTON      CLOUDY    70  56  61 S10       30.09S
FRANKFORT      MOCLDY    70  56  61 S7        30.10S
$$

KYZ054-064>069-076>088-106>120-251000-
SOUTHEAST KENTUCKY

CITY           SKY/WX    TMP DP  RH WIND       PRES   REMARKS
JACKSON        PTCLDY    65  50  58 VRB3      30.19S
LONDON         PTCLDY    64  51  62 SE3       30.18S
SOMERSET       NOT AVBL
MIDDLESBORO    CLEAR     56  55  95 CALM      30.23S
MONTICELLO     PTSUNNY   72  56  57 S14       30.18S
$$




USA.gov is the U.S. government's official web portal to all federal, state and local government web resources and services.